When you browse on this site, cookies collect data to enhance your experience and personalize the content and advertising you see.
Visit our Privacy Policy to learn more. By continuing to use the site, you agree to this use of cookies and data.
  • In Deutschland
  • Länderverzeichnis
  • Für 7 Tage
  • Wassertemperatur
  • Wetterkarte
  • Widgets
  • user-avatar
    Anmelden

    Stündliche Wetter Bochum

    Heute, 15 Oktober, Dienstag

    Zeit Temperatur Niederschläge Wind Luftdruck Luftfeuchtigkeit
    00:00 +18°C° 0 mm 3 m/S 747 mmHg 70%
    01:00 +18°C° 0 mm 3 m/S 747 mmHg 73%
    02:00 +17°C° 0 mm 2 m/S 747 mmHg 76%
    03:00 +17°C° 0 mm 2 m/S 746 mmHg 79%
    04:00 +16°C° 0 mm 2 m/S 746 mmHg 80%
    05:00 +16°C° 0 mm 2 m/S 746 mmHg 80%
    06:00 +16°C° 0 mm 1 m/S 746 mmHg 81%
    07:00 +17°C° 0 mm 2 m/S 746 mmHg 77%
    08:00 +18°C° 0 mm 2 m/S 746 mmHg 72%
    09:00 +20°C° 0 mm 3 m/S 746 mmHg 68%
    10:00 +20°C° 0 mm 3 m/S 746 mmHg 66%
    11:00 +21°C° 0 mm 3 m/S 746 mmHg 64%
    12:00 +21°C° 0 mm 3 m/S 746 mmHg 62%
    13:00 +20°C° 0.2 mm 3 m/S 746 mmHg 68%
    14:00 +19°C° 0.2 mm 3 m/S 745 mmHg 74%
    15:00 +17°C° 0.2 mm 3 m/S 745 mmHg 80%
    16:00 +16°C° 2.1 mm 3 m/S 745 mmHg 83%
    17:00 +16°C° 2.1 mm 3 m/S 746 mmHg 87%
    18:00 +14°C° 2.1 mm 3 m/S 746 mmHg 90%
    19:00 +13°C° 2.8 mm 4 m/S 746 mmHg 90%
    20:00 +13°C° 2.8 mm 4 m/S 747 mmHg 89%
    21:00 +13°C° 2.8 mm 4 m/S 747 mmHg 89%
    22:00 +13°C° 1.2 mm 4 m/S 747 mmHg 87%
    23:00 +12°C° 1.2 mm 4 m/S 748 mmHg 84%

    Morgen, 16 Oktober, Mittwoch

    Zeit Temperatur Niederschläge Wind Luftdruck Luftfeuchtigkeit
    00:00 +12°C° 1.2 mm 4 m/S 748 mmHg 81%
    01:00 +12°C° 0.1 mm 4 m/S 748 mmHg 82%
    02:00 +12°C° 0.1 mm 4 m/S 748 mmHg 82%
    03:00 +11°C° 0.1 mm 4 m/S 748 mmHg 83%
    04:00 +11°C° 0 mm 4 m/S 748 mmHg 82%
    05:00 +11°C° 0 mm 4 m/S 748 mmHg 81%
    06:00 +11°C° 0 mm 4 m/S 748 mmHg 80%
    07:00 +11°C° 0 mm 4 m/S 748 mmHg 79%
    08:00 +12°C° 0 mm 5 m/S 749 mmHg 77%
    09:00 +12°C° 0 mm 5 m/S 749 mmHg 76%
    10:00 +13°C° 0 mm 5 m/S 749 mmHg 74%
    11:00 +14°C° 0 mm 5 m/S 749 mmHg 72%
    12:00 +15°C° 0 mm 5 m/S 749 mmHg 70%
    13:00 +14°C° 0.3 mm 5 m/S 748 mmHg 75%
    14:00 +13°C° 0.3 mm 5 m/S 748 mmHg 80%
    15:00 +13°C° 0.3 mm 4 m/S 748 mmHg 85%
    16:00 +13°C° 0.3 mm 4 m/S 748 mmHg 84%
    17:00 +13°C° 0.3 mm 4 m/S 748 mmHg 84%
    18:00 +13°C° 0.3 mm 4 m/S 748 mmHg 83%
    19:00 +13°C° 0.2 mm 4 m/S 749 mmHg 82%
    20:00 +13°C° 0.2 mm 4 m/S 749 mmHg 81%
    21:00 +13°C° 0.2 mm 4 m/S 749 mmHg 80%
    22:00 +13°C° 0.4 mm 4 m/S 749 mmHg 82%
    23:00 +13°C° 0.4 mm 5 m/S 749 mmHg 83%

    übermorgen, 17 Oktober, Donnerstag

    Zeit Temperatur Niederschläge Wind Luftdruck Luftfeuchtigkeit
    00:00 +13°C° 0.4 mm 5 m/S 749 mmHg 85%
    01:00 +13°C° 0.4 mm 5 m/S 749 mmHg 85%
    02:00 +13°C° 0.4 mm 5 m/S 749 mmHg 85%
    03:00 +13°C° 0.4 mm 5 m/S 749 mmHg 85%
    04:00 +13°C° 0.3 mm 4 m/S 749 mmHg 87%
    05:00 +13°C° 0.3 mm 4 m/S 749 mmHg 88%
    06:00 +13°C° 0.3 mm 3 m/S 749 mmHg 89%
    07:00 +13°C° 0.4 mm 3 m/S 749 mmHg 89%
    08:00 +13°C° 0.4 mm 4 m/S 750 mmHg 88%
    09:00 +13°C° 0.4 mm 4 m/S 750 mmHg 88%
    10:00 +14°C° 0.1 mm 4 m/S 751 mmHg 80%
    11:00 +15°C° 0.1 mm 4 m/S 751 mmHg 73%
    12:00 +15°C° 0.1 mm 4 m/S 751 mmHg 66%
    13:00 +15°C° 0 mm 4 m/S 751 mmHg 66%
    14:00 +15°C° 0 mm 4 m/S 751 mmHg 67%
    15:00 +14°C° 0 mm 3 m/S 751 mmHg 67%
    16:00 +14°C° 0 mm 3 m/S 752 mmHg 66%
    17:00 +13°C° 0 mm 3 m/S 752 mmHg 65%
    18:00 +12°C° 0 mm 3 m/S 752 mmHg 64%
    19:00 +12°C° 0 mm 3 m/S 752 mmHg 67%
    20:00 +11°C° 0 mm 3 m/S 753 mmHg 71%
    21:00 +12°C° 0 mm 2 m/S 753 mmHg 75%
    22:00 +11°C° 0 mm 3 m/S 753 mmHg 77%
    23:00 +10°C° 0 mm 3 m/S 752 mmHg 79%

    18 Oktober, Freitag

    Zeit Temperatur Niederschläge Wind Luftdruck Luftfeuchtigkeit
    00:00 +10°C° 0 mm 3 m/S 752 mmHg 81%
    01:00 +11°C° 0 mm 3 m/S 752 mmHg 81%
    02:00 +11°C° 0 mm 3 m/S 752 mmHg 81%
    03:00 +11°C° 0 mm 3 m/S 751 mmHg 81%
    04:00 +12°C° 0.4 mm 3 m/S 751 mmHg 84%
    05:00 +12°C° 0.4 mm 4 m/S 751 mmHg 87%
    06:00 +12°C° 0.4 mm 4 m/S 750 mmHg 90%
    07:00 +13°C° 0.2 mm 4 m/S 750 mmHg 87%
    08:00 +13°C° 0.2 mm 5 m/S 750 mmHg 84%
    09:00 +14°C° 0.2 mm 5 m/S 751 mmHg 82%
    10:00 +14°C° 0.2 mm 5 m/S 751 mmHg 75%
    11:00 +15°C° 0.2 mm 5 m/S 751 mmHg 68%
    12:00 +16°C° 0.2 mm 5 m/S 751 mmHg 61%
    13:00 +16°C° 0 mm 5 m/S 751 mmHg 60%
    14:00 +15°C° 0 mm 4 m/S 751 mmHg 59%
    15:00 +15°C° 0 mm 4 m/S 751 mmHg 59%
    16:00 +14°C° 0 mm 3 m/S 751 mmHg 63%
    17:00 +13°C° 0 mm 3 m/S 751 mmHg 67%
    18:00 +13°C° 0 mm 2 m/S 751 mmHg 71%
    19:00 +12°C° 0 mm 3 m/S 752 mmHg 73%
    20:00 +12°C° 0 mm 3 m/S 752 mmHg 74%
    21:00 +11°C° 0 mm 3 m/S 752 mmHg 76%
    22:00 +11°C° 0 mm 3 m/S 752 mmHg 77%
    23:00 +11°C° 0 mm 3 m/S 752 mmHg 79%

    19 Oktober, Samstag

    Zeit Temperatur Niederschläge Wind Luftdruck Luftfeuchtigkeit
    00:00 +11°C° 0 mm 3 m/S 751 mmHg 80%
    01:00 +11°C° 0 mm 3 m/S 751 mmHg 80%
    02:00 +11°C° 0 mm 3 m/S 751 mmHg 79%
    03:00 +11°C° 0 mm 3 m/S 751 mmHg 79%
    04:00 +11°C° 0 mm 3 m/S 751 mmHg 79%
    05:00 +10°C° 0 mm 3 m/S 751 mmHg 80%
    06:00 +10°C° 0 mm 3 m/S 750 mmHg 81%
    07:00 +11°C° 0 mm 4 m/S 750 mmHg 78%
    08:00 +12°C° 0 mm 4 m/S 750 mmHg 75%
    09:00 +13°C° 0 mm 5 m/S 750 mmHg 72%
    10:00 +14°C° 0 mm 4 m/S 750 mmHg 68%
    11:00 +15°C° 0 mm 4 m/S 749 mmHg 64%
    12:00 +17°C° 0 mm 4 m/S 749 mmHg 61%
    13:00 +17°C° 0 mm 4 m/S 749 mmHg 63%
    14:00 +17°C° 0 mm 3 m/S 748 mmHg 65%
    15:00 +16°C° 0 mm 3 m/S 748 mmHg 67%
    16:00 +16°C° 0.1 mm 2 m/S 747 mmHg 71%
    17:00 +15°C° 0.1 mm 2 m/S 747 mmHg 75%
    18:00 +14°C° 0.1 mm 1 m/S 746 mmHg 79%
    19:00 +14°C° 1.8 mm 2 m/S 746 mmHg 83%
    20:00 +14°C° 1.8 mm 2 m/S 746 mmHg 86%
    21:00 +13°C° 1.8 mm 3 m/S 745 mmHg 90%
    22:00 +12°C° 0.9 mm 3 m/S 745 mmHg 90%
    23:00 +13°C° 0.9 mm 2 m/S 744 mmHg 90%

    20 Oktober, Sonntag

    Zeit Temperatur Niederschläge Wind Luftdruck Luftfeuchtigkeit
    00:00 +13°C° 0.9 mm 2 m/S 744 mmHg 90%
    01:00 +13°C° 0.1 mm 2 m/S 744 mmHg 89%
    02:00 +13°C° 0.1 mm 2 m/S 744 mmHg 88%
    03:00 +11°C° 0.1 mm 3 m/S 743 mmHg 87%
    04:00 +12°C° 0 mm 3 m/S 744 mmHg 86%
    05:00 +12°C° 0 mm 3 m/S 744 mmHg 86%
    06:00 +12°C° 0 mm 4 m/S 744 mmHg 85%
    07:00 +12°C° 0.1 mm 4 m/S 744 mmHg 83%
    08:00 +12°C° 0.1 mm 5 m/S 745 mmHg 81%
    09:00 +12°C° 0.1 mm 5 m/S 745 mmHg 79%
    10:00 +13°C° 0 mm 5 m/S 745 mmHg 73%
    11:00 +14°C° 0 mm 5 m/S 746 mmHg 66%
    12:00 +14°C° 0 mm 5 m/S 746 mmHg 60%
    13:00 +14°C° 0 mm 5 m/S 746 mmHg 60%
    14:00 +14°C° 0 mm 5 m/S 746 mmHg 61%
    15:00 +14°C° 0 mm 4 m/S 746 mmHg 61%
    16:00 +13°C° 0 mm 4 m/S 747 mmHg 64%
    17:00 +12°C° 0 mm 4 m/S 747 mmHg 68%
    18:00 +11°C° 0 mm 3 m/S 748 mmHg 71%
    19:00 +11°C° 0 mm 3 m/S 748 mmHg 73%
    20:00 +10°C° 0 mm 3 m/S 748 mmHg 74%
    21:00 +10°C° 0 mm 3 m/S 749 mmHg 76%
    22:00 +10°C° 0 mm 3 m/S 749 mmHg 76%
    23:00 +9°C° 0 mm 3 m/S 749 mmHg 76%
    Mehr zeigen